Regional Weather Roundup
Issued by NWS

Home | Current Version | Previous Version | Text Only | Print | Product List | Glossary On
Versions: 1 2 3 4 5 6 7 8 9 10 11 12 13 14 15 16 17 18 19 20 21 22 23 24 25 26 27 28 29 30 31 32 33 34 35 36 37 38 39 40 41 42 43 44 45 46 47 48 49 50
000
ASUS43 KLSX 020607
RWRMO

WEATHER SUMMARY FOR MISSOURI
NATIONAL WEATHER SERVICE SPRINGFIELD MO
100 AM CDT THU OCT 02 2014

NOTE: "FAIR" INDICATES FEW OR NO CLOUDS BELOW 12,000 FEET WITH NO
       SIGNIFICANT WEATHER AND/OR OBSTRUCTIONS TO VISIBILITY.
       CURRENT SKY AND/OR WEATHER CONDITIONS ARE NOT AVAILABLE FOR
       CHILLICOTHE AND FARMINGTON.

MOZ001>031-035>038-043-044-053-054-020700-
...NORTHERN AND WESTERN MISSOURI...

CITY           SKY/WX    TMP DP  RH WIND       PRES   REMARKS
KANSAS CTY INT CLOUDY    65  64  97 S13       29.75S
6HR MIN TEMP:  64; 6HR MAX TEMP:  70; 6HR PCP:  1.19;

KANSAS C DTWN  LGT RAIN  68  65  90 SE8       29.74F
6HR MIN TEMP:  67; 6HR MAX TEMP:  69; 6HR PCP:  1.87;

LEE`S SUMMIT   LGT RAIN  66  64  93 E3        29.79F
6HR MIN TEMP:  66; 6HR MAX TEMP:  69; 6HR PCP:  0.68;

ST JOSEPH      MOCLDY    64  63  96 CALM      29.76S
6HR MIN TEMP:  64; 6HR MAX TEMP:  74; 6HR PCP:  0.01;

CHILLICOTHE      N/A     66  65  96 S5        29.78S
6HR MIN TEMP:  66; 6HR MAX TEMP:  70; 6HR PCP:  0.13;

KIRKSVILLE     LGT RAIN  66  65  96 S7        29.79F FOG
6HR MIN TEMP:  64; 6HR MAX TEMP:  67; 6HR PCP:  0.22;


$$
MOZ066>068-077>081-088>096-101>105-020700-
...SOUTHWEST MISSOURI...

CITY           SKY/WX    TMP DP  RH WIND       PRES   REMARKS
SPRINGFIELD    CLEAR     74  67  78 S15       29.81F
6HR MIN TEMP:  74; 6HR MAX TEMP:  78;

JOPLIN         CLEAR     75  68  78 S15       29.77S
6HR MIN TEMP:  75; 6HR MAX TEMP:  78;


$$
MOZ032>034-039>042-045>050-055>058-069>072-020700-
...CENTRAL MISSOURI...

CITY           SKY/WX    TMP DP  RH WIND       PRES   REMARKS
COLUMBIA       CLOUDY    67  66  97 CALM      29.83R
6HR MIN TEMP:  66; 6HR MAX TEMP:  69; 6HR PCP:  0.69;

ROLLA          MOCLDY    73  67  81 S10       29.81F
6HR MIN TEMP:  66; 6HR MAX TEMP:  80; 6HR PCP: TRACE;

SEDALIA        CLOUDY    66  63  90 NE10      29.82F
6HR MIN TEMP:  65; 6HR MAX TEMP:  68; 6HR PCP:  0.08;

WHITEMAN AFB   DRIZZLE   64  63  94 NE10      29.80F
OSAGE BEACH    MOCLDY    72  64  78 S3        29.80S

$$
MOZ051-052-059>065-020700-
...EAST CENTRAL MISSOURI...

CITY           SKY/WX    TMP DP  RH WIND       PRES   REMARKS
ST LOUIS INTL  LGT RAIN  70  68  93 SE9       29.84F
6HR MIN TEMP:  70; 6HR MAX TEMP:  85; 6HR PCP:  0.31;

SPIRIT OF STL  CLOUDY    70  68  93 CALM      29.83F
6HR MIN TEMP:  69; 6HR MAX TEMP:  81; 6HR PCP:  0.15;

ST CHARLES     FOG       67  66  97 N6G20     29.86R THUNDER VSB 3/4
6HR MIN TEMP:  67; 6HR MAX TEMP:  82; 6HR PCP:  0.67;


$$
MOZ072>076-082>087-097>100-106>115-020700-
...SOUTH CENTRAL AND SOUTHEAST MISSOURI...

CITY           SKY/WX    TMP DP  RH WIND       PRES   REMARKS
CAPE GIRARDEAU PTCLDY    72  63  73 S7        29.88F
6HR MIN TEMP:  72; 6HR MAX TEMP:  80;

FARMINGTON     CLOUDY    73  64  73 S8        29.90F
6HR MIN TEMP:  72; 6HR MAX TEMP:  79;

POPLAR BLUFF   CLOUDY    67  63  87 CALM      29.87S
6HR MIN TEMP:  66; 6HR MAX TEMP:  73; 6HR PCP:  0.01;

WEST PLAINS    CLEAR     71  66  84 S8        29.89S
6HR MIN TEMP:  71; 6HR MAX TEMP:  77;


$$


USA.gov is the U.S. government's official web portal to all federal, state and local government web resources and services.